CEB357 RPVD-RPMZ

Flight info

Callsign CEB357
Flight time N/A
Altitude 20000
Route ALDIN G578 PARAL PARAL2W
Aircraft A20N/M-SDE2E3FGHIJ1RWXY/LB1

Departure

Time 2026-05-04 11:20
Airport Sibulan Airport (RPVD)

Arrival

Time N/A
Airport Zamboanga International Airport (RPMZ)
Time Latitude Longitude Altitude Speed Heading
2026-05-04 11:05 9.33325 123.29632 60 ft 0 kts 142°
2026-05-04 11:16 9.33325 123.29636 60 ft 0 kts 69°
2026-05-04 11:16 9.33337 123.29642 60 ft 3 kts 21°
2026-05-04 11:16 9.33358 123.29654 59 ft 5 kts 29°
2026-05-04 11:17 9.33389 123.29684 58 ft 7 kts 52°
2026-05-04 11:17 9.33419 123.29714 58 ft 4 kts 12°
2026-05-04 11:19 9.33474 123.29401 64 ft 1 kts 280°
2026-05-04 11:19 9.33468 123.29400 64 ft 1 kts 127°
2026-05-04 11:19 9.33464 123.29417 63 ft 0 kts 96°
2026-05-04 11:19 9.33464 123.29419 63 ft 1 kts 96°
2026-05-04 11:20 9.33451 123.29624 60 ft 69 kts 93°
2026-05-04 11:20 9.33409 123.30378 41 ft 140 kts 92°
2026-05-04 11:20 9.33346 123.31432 518 ft 149 kts 92°
2026-05-04 11:20 9.33283 123.32419 1277 ft 140 kts 91°
2026-05-04 11:22 9.27029 123.30866 4055 ft 247 kts 174°
2026-05-04 11:22 9.25278 123.31072 4584 ft 261 kts 170°
2026-05-04 11:23 9.23398 123.31238 5086 ft 279 kts 176°
2026-05-04 11:23 9.21417 123.31215 5825 ft 287 kts 181°
2026-05-04 11:24 9.09398 123.28848 10450 ft 309 kts 207°
2026-05-04 11:25 9.07465 123.27753 10801 ft 326 kts 209°
2026-05-04 11:25 9.05440 123.26573 11100 ft 344 kts 209°
2026-05-04 11:25 9.03323 123.25342 11376 ft 360 kts 209°
2026-05-04 11:26 8.98829 123.22749 12363 ft 376 kts 209°
2026-05-04 11:27 8.82349 123.13341 16171 ft 400 kts 208°
2026-05-04 11:28 8.79900 123.11948 16663 ft 403 kts 208°
2026-05-04 11:28 8.77452 123.10554 17140 ft 406 kts 208°
2026-05-04 11:28 8.74974 123.09141 17602 ft 409 kts 208°
2026-05-04 11:28 8.72487 123.07725 18068 ft 411 kts 208°
2026-05-04 11:29 8.70008 123.06314 18529 ft 413 kts 208°
2026-05-04 11:29 8.67611 123.04948 18963 ft 415 kts 208°
2026-05-04 11:29 8.65267 123.03611 19364 ft 417 kts 208°
2026-05-04 11:29 8.62741 123.02171 19725 ft 421 kts 208°
2026-05-04 11:31 8.44804 122.91951 19871 ft 421 kts 208°
2026-05-04 11:33 8.26935 122.81780 19882 ft 421 kts 208°
2026-05-04 11:33 8.24354 122.80311 19885 ft 422 kts 208°
2026-05-04 11:33 8.21805 122.78861 19885 ft 422 kts 208°
2026-05-04 11:34 8.19235 122.77399 19887 ft 422 kts 208°
2026-05-04 11:34 8.16694 122.75955 19890 ft 422 kts 208°
2026-05-04 11:34 8.14114 122.74488 19831 ft 422 kts 208°
2026-05-04 11:34 8.11554 122.73032 19597 ft 419 kts 208°
2026-05-04 11:35 8.09029 122.71597 19366 ft 417 kts 208°
2026-05-04 11:35 8.06493 122.70157 19133 ft 415 kts 208°
2026-05-04 11:35 8.03959 122.68716 18902 ft 414 kts 208°
2026-05-04 11:35 8.01468 122.67301 18673 ft 412 kts 208°
2026-05-04 11:36 7.98950 122.65871 18440 ft 411 kts 208°
2026-05-04 11:36 7.96448 122.64451 18207 ft 410 kts 208°
2026-05-04 11:36 7.93982 122.63051 17977 ft 409 kts 208°
2026-05-04 11:36 7.91476 122.61629 17742 ft 408 kts 208°
2026-05-04 11:37 7.89035 122.60245 17512 ft 407 kts 208°
2026-05-04 11:37 7.86529 122.58830 17275 ft 406 kts 208°
2026-05-04 11:37 7.84079 122.57447 17047 ft 404 kts 208°
2026-05-04 11:37 7.81623 122.56058 16819 ft 403 kts 208°
2026-05-04 11:38 7.79187 122.54679 16591 ft 401 kts 208°
2026-05-04 11:38 7.76761 122.53303 16361 ft 399 kts 208°
2026-05-04 11:38 7.74306 122.51913 16129 ft 398 kts 208°
2026-05-04 11:38 7.71902 122.50549 15897 ft 397 kts 208°
2026-05-04 11:39 7.69497 122.49186 15656 ft 395 kts 208°
2026-05-04 11:39 7.67102 122.47828 15392 ft 394 kts 208°
2026-05-04 11:40 7.52996 122.39831 12677 ft 381 kts 209°
2026-05-04 11:41 7.50681 122.38519 12207 ft 378 kts 209°
2026-05-04 11:41 7.48402 122.37226 11740 ft 375 kts 209°
2026-05-04 11:41 7.46121 122.35932 11272 ft 373 kts 209°
2026-05-04 11:41 7.43879 122.34660 10807 ft 370 kts 209°
2026-05-04 11:42 7.41620 122.33366 10387 ft 365 kts 209°
2026-05-04 11:42 7.39464 122.32132 10274 ft 350 kts 209°
2026-05-04 11:42 7.37381 122.30944 10162 ft 331 kts 208°
2026-05-04 11:42 7.35441 122.29842 10078 ft 306 kts 208°
2026-05-04 11:43 7.33612 122.28805 10014 ft 296 kts 208°
2026-05-04 11:43 7.31815 122.27788 9800 ft 294 kts 208°
2026-05-04 11:43 7.30045 122.26789 9471 ft 293 kts 208°
2026-05-04 11:43 7.28266 122.25784 9154 ft 291 kts 208°
2026-05-04 11:44 7.26508 122.24789 8835 ft 289 kts 208°
2026-05-04 11:44 7.24759 122.23800 8527 ft 287 kts 208°
2026-05-04 11:44 7.23029 122.22813 8241 ft 285 kts 208°
2026-05-04 11:44 7.21573 122.21985 7973 ft 283 kts 207°
2026-05-04 11:45 7.19859 122.21023 7668 ft 281 kts 207°
2026-05-04 11:45 7.18141 122.20067 7371 ft 279 kts 207°
2026-05-04 11:45 7.16440 122.19117 7076 ft 278 kts 207°
2026-05-04 11:45 7.14766 122.18176 6778 ft 276 kts 208°
2026-05-04 11:46 7.13075 122.17223 6471 ft 275 kts 207°
2026-05-04 11:46 7.11289 122.16597 6122 ft 271 kts 181°
2026-05-04 11:46 7.09485 122.16921 5824 ft 265 kts 153°
2026-05-04 11:46 7.08024 122.18033 5508 ft 260 kts 131°
2026-05-04 11:47 7.06820 122.19379 5233 ft 256 kts 131°
2026-05-04 11:47 7.05569 122.20644 4951 ft 254 kts 136°
2026-05-04 11:47 7.04222 122.21782 4665 ft 252 kts 141°
2026-05-04 11:47 7.03270 122.22463 4470 ft 250 kts 145°